Weather History for Smyrna, TN

Change the Weather History Date:

Sunday, November 11, 2012

  Actual Average Record
Temperature  
Mean Temperature 56 °F -  
Max Temperature 72 °F 57 °F 79 °F (2010)
Min Temperature 41 °F 41 °F 25 °F (2011)
Degree Days  
Heating Degree Days 8    
Growing Degree Days 6 (Base 50)    
Moisture  
Dew Point 44 °F    
Average Humidity 58    
Maximum Humidity 85    
Minimum Humidity 35    
Precipitation  
Precipitation 0.00 in - - ()
Sea Level Pressure  
Sea Level Pressure 30.19 in    
Wind  
Wind Speed 7 mph (South)    
Max Wind Speed 23 mph    
Max Gust Speed 31 mph    
Visibility 10 miles    
Events      
Averages and records for this station are not official NWS values.
T = Trace of Precipitation, MM = Missing Value Source: NWS Daily Summary

Daily Weather History Graph

Daily Weather History Graph

Search for Another Location

Airport:

Trip Planner

Search our weather history database for the weather conditions in past years. The results will help you decide how hot, cold, wet, or windy it might be!

Date:

Astronomy

Nov. 11, 2012 Rise Set
Actual Time 6:19 AM CST 4:40 PM CST
Civil Twilight 5:51 AM CST 5:07 PM CST
Nautical Twilight 5:21 AM CST 5:38 PM CST
Astronomical Twilight 4:50 AM CST 6:08 PM CST
Moon 3:36 AM CST (11/11) 3:01 PM CST (11/11)
Length of Visible Light 11h 16m
Length of Day
10h 21m
Waning Crescent, 7% of the Moon is Illuminated
Nov 11
Waning Crescent
Nov 13
New
Nov 20
First Quarter
Nov 28
Full
Dec 6
Last Quarter

Hourly Weather History & Observations

Time (CST) Temp. Windchill Dew Point Humidity Pressure Visibility Wind Dir Wind Speed Gust Speed Precip Events Conditions
12:56 AM 50.9 °F - 38.8 °F 63% 30.22 in 10.0 mi Calm Calm - N/A   Clear
1:56 AM 47.8 °F - 38.8 °F 71% 30.22 in 10.0 mi Calm Calm - N/A   Clear
2:56 AM 48.9 °F - 38.8 °F 68% 30.22 in 10.0 mi Calm Calm - N/A   Clear
3:56 AM 43.9 °F - 38.8 °F 82% 30.24 in 10.0 mi Calm Calm - N/A   Clear
4:56 AM 45.9 °F 42.9 °F 38.8 °F 76% 30.26 in 10.0 mi SSE 5.8 mph - N/A   Clear
5:56 AM 41.0 °F - 36.9 °F 85% 30.28 in 10.0 mi Calm Calm - N/A   Clear
6:56 AM 47.8 °F - 39.9 °F 74% 30.29 in 10.0 mi SSE 6.9 mph - N/A   Clear
8:56 AM 61.9 °F - 41.9 °F 48% 30.28 in 10.0 mi South 9.2 mph 17.3 mph N/A   Clear
9:56 AM 66.9 °F - 41.9 °F 40% 30.27 in 10.0 mi South 13.8 mph 24.2 mph N/A   Clear
10:56 AM 68.9 °F - 43.0 °F 39% 30.25 in 10.0 mi SSW 16.1 mph 27.6 mph N/A   Clear
12:56 PM 70.9 °F - 41.9 °F 35% 30.18 in 10.0 mi SSW 18.4 mph 26.5 mph N/A   Clear
1:56 PM 72.0 °F - 45.0 °F 38% 30.16 in 10.0 mi South 23.0 mph 31.1 mph N/A   Clear
2:56 PM 72.0 °F - 45.9 °F 39% 30.14 in 10.0 mi South 23.0 mph 29.9 mph N/A   Clear
3:56 PM 70.0 °F - 47.8 °F 45% 30.14 in 10.0 mi South 16.1 mph 24.2 mph N/A   Clear
4:56 PM 66.9 °F - 47.8 °F 50% 30.15 in 10.0 mi South 13.8 mph 19.6 mph N/A   Clear
5:56 PM 64.9 °F - 48.9 °F 56% 30.17 in 10.0 mi South 9.2 mph - N/A   Clear
6:56 PM 64.9 °F - 50.0 °F 58% 30.15 in 10.0 mi SSE 13.8 mph 20.7 mph N/A   Clear
7:56 PM 64.9 °F - 50.9 °F 60% 30.12 in 10.0 mi SSE 17.3 mph 23.0 mph N/A   Clear
8:56 PM 64.9 °F - 50.0 °F 58% 30.11 in 10.0 mi South 18.4 mph - N/A   Clear
9:56 PM 63.9 °F - 50.9 °F 63% 30.11 in 10.0 mi South 11.5 mph 17.3 mph N/A   Clear
10:56 PM 64.9 °F - 50.9 °F 60% 30.10 in 10.0 mi South 11.5 mph - N/A   Partly Cloudy